Powrót do katalogu

WEITONG-1 01

AktywnyŁącznośćSSO
NORAD 68202·PAYLOAD·🇨🇳 China
Ta nazwa satelity nie została jeszcze potwierdzona przez oficjalne źródła.

Wystrzelony Mar 16, 2026 z Jiuquan Satellite Launch Center

Loading…

Następne Przeloty (najbliższe 24 godziny)

TLE

ŚwieżeSource: Space-Track

Epoka: Sep 14, 2026, 11:45 UTC

1 68202U 26052E   26257.49008391  .00004935  00000-0  28881-3 0  9990
2 68202  97.5259 331.0577 0011334  13.1533 346.9991 15.12249101 27546

Śledź WEITONG-1 01 w czasie rzeczywistym z AllMySat

Download on the App Store